Year,Month,Day,Hour,Minute,Value (Times are PST for windspeed in km/hr)
2010,12,30,00,00,8.70
2010,12,30,00,01,11.70
2010,12,30,00,02,8.90
2010,12,30,00,03,6.70
2010,12,30,00,04,5.10
2010,12,30,00,05,4.90
2010,12,30,00,06,5.40
2010,12,30,00,07,4.30
2010,12,30,00,08,3.00
2010,12,30,00,09,8.00
2010,12,30,00,10,4.40
2010,12,30,00,11,2.20
2010,12,30,00,12,3.70
2010,12,30,00,13,5.80
2010,12,30,00,14,2.40
2010,12,30,00,15,4.60
2010,12,30,00,16,4.60
2010,12,30,00,17,4.10
2010,12,30,00,18,6.90
2010,12,30,00,19,4.80
2010,12,30,00,20,9.90
2010,12,30,00,21,4.90
2010,12,30,00,22,4.30
2010,12,30,00,23,4.80
2010,12,30,00,24,8.30
2010,12,30,00,25,2.50
2010,12,30,00,26,2.50
2010,12,30,00,27,5.70
2010,12,30,00,28,7.70
2010,12,30,00,29,3.80
2010,12,30,00,30,3.60
2010,12,30,00,31,6.40
2010,12,30,00,32,8.00
2010,12,30,00,33,2.40
2010,12,30,00,34,10.00
2010,12,30,00,35,6.20
2010,12,30,00,36,1.70
2010,12,30,00,37,1.50
2010,12,30,00,38,3.90
2010,12,30,00,39,5.60
2010,12,30,00,40,10.30
2010,12,30,00,41,5.20
2010,12,30,00,42,2.80
2010,12,30,00,43,8.10
2010,12,30,00,44,9.70
2010,12,30,00,45,9.70
2010,12,30,00,46,6.10
2010,12,30,00,47,5.40
2010,12,30,00,48,6.00
2010,12,30,00,49,8.10
2010,12,30,00,50,10.80
2010,12,30,00,51,4.50
2010,12,30,00,52,4.70
2010,12,30,00,53,3.10
2010,12,30,00,54,3.50
2010,12,30,00,55,7.50
2010,12,30,00,56,11.20
2010,12,30,00,57,5.20
2010,12,30,00,58,6.80
2010,12,30,00,59,4.70
2010,12,30,01,00,7.10
2010,12,30,01,01,7.50
2010,12,30,01,02,7.30
2010,12,30,01,03,2.50
2010,12,30,01,04,6.40
2010,12,30,01,05,6.10
2010,12,30,01,06,7.10
2010,12,30,01,07,4.10
2010,12,30,01,08,4.40
2010,12,30,01,09,5.10
2010,12,30,01,10,8.50
2010,12,30,01,11,2.80
2010,12,30,01,12,5.30
2010,12,30,01,13,3.40
2010,12,30,01,14,9.50
2010,12,30,01,15,6.00
2010,12,30,01,16,4.40
2010,12,30,01,17,7.30
2010,12,30,01,18,5.10
2010,12,30,01,19,7.20
2010,12,30,01,20,6.20
2010,12,30,01,21,4.60
2010,12,30,01,22,8.50
2010,12,30,01,23,6.80
2010,12,30,01,24,6.30
2010,12,30,01,25,6.10
2010,12,30,01,26,7.20
2010,12,30,01,27,7.70
2010,12,30,01,28,12.50
2010,12,30,01,29,2.70
2010,12,30,01,30,2.30
2010,12,30,01,31,7.40
2010,12,30,01,32,6.40
2010,12,30,01,33,9.70
2010,12,30,01,34,6.40
2010,12,30,01,35,5.90
2010,12,30,01,36,5.40
2010,12,30,01,37,2.00
2010,12,30,01,38,3.80
2010,12,30,01,39,6.20
2010,12,30,01,40,3.80
2010,12,30,01,41,9.30
2010,12,30,01,42,7.20
2010,12,30,01,43,3.10
2010,12,30,01,44,3.10
2010,12,30,01,45,1.90
2010,12,30,01,46,5.80
2010,12,30,01,47,3.60
2010,12,30,01,48,5.10
2010,12,30,01,49,3.50
2010,12,30,01,50,4.40
2010,12,30,01,51,2.70
2010,12,30,01,52,1.00
2010,12,30,01,53,1.10
2010,12,30,01,54,4.20
2010,12,30,01,55,10.60
2010,12,30,01,56,7.60
2010,12,30,01,57,5.60
2010,12,30,01,58,4.20
2010,12,30,01,59,4.80
2010,12,30,02,00,3.20
2010,12,30,02,01,6.40
2010,12,30,02,02,8.60
2010,12,30,02,03,8.40
2010,12,30,02,04,4.10
2010,12,30,02,05,2.80
2010,12,30,02,06,3.00
2010,12,30,02,07,6.30
2010,12,30,02,08,5.70
2010,12,30,02,09,2.00
2010,12,30,02,10,7.10
2010,12,30,02,11,4.70
2010,12,30,02,12,3.30
2010,12,30,02,13,0.60
2010,12,30,02,14,5.10
2010,12,30,02,15,5.70
2010,12,30,02,16,5.30
2010,12,30,02,17,4.10
2010,12,30,02,18,2.00
2010,12,30,02,19,2.10
2010,12,30,02,20,1.20
2010,12,30,02,21,1.40
2010,12,30,02,22,3.90
2010,12,30,02,23,4.60
2010,12,30,02,24,8.20
2010,12,30,02,25,4.20
2010,12,30,02,26,4.50
2010,12,30,02,27,2.50
2010,12,30,02,28,1.60
2010,12,30,02,29,4.30
2010,12,30,02,30,1.80
2010,12,30,02,31,6.70
2010,12,30,02,32,3.70
2010,12,30,02,33,5.10
2010,12,30,02,34,3.80
2010,12,30,02,35,6.30
2010,12,30,02,36,3.90
2010,12,30,02,37,4.10
2010,12,30,02,38,0.60
2010,12,30,02,39,2.00
2010,12,30,02,40,6.00
2010,12,30,02,41,2.80
2010,12,30,02,42,3.00
2010,12,30,02,43,0.30
2010,12,30,02,44,5.00
2010,12,30,02,45,3.90
2010,12,30,02,46,2.40
2010,12,30,02,47,2.50
2010,12,30,02,48,3.00
2010,12,30,02,49,3.80
2010,12,30,02,50,2.50
2010,12,30,02,51,1.00
2010,12,30,02,52,1.30
2010,12,30,02,53,2.90
2010,12,30,02,54,0.90
2010,12,30,02,55,4.10
2010,12,30,02,56,0.90
2010,12,30,02,57,2.70
2010,12,30,02,58,4.70
2010,12,30,02,59,1.80
2010,12,30,03,00,3.40
2010,12,30,03,01,1.20
2010,12,30,03,02,0.00
2010,12,30,03,03,3.50
2010,12,30,03,04,3.80
2010,12,30,03,05,2.30
2010,12,30,03,06,0.40
2010,12,30,03,07,3.10
2010,12,30,03,08,0.50
2010,12,30,03,09,0.10
2010,12,30,03,10,5.90
2010,12,30,03,11,3.60
2010,12,30,03,12,4.70
2010,12,30,03,13,1.80
2010,12,30,03,14,3.20
2010,12,30,03,15,4.90
2010,12,30,03,16,0.00
2010,12,30,03,17,3.60
2010,12,30,03,18,0.70
2010,12,30,03,19,0.00
2010,12,30,03,20,1.60
2010,12,30,03,21,2.30
2010,12,30,03,22,4.10
2010,12,30,03,23,4.10
2010,12,30,03,24,6.00
2010,12,30,03,25,1.10
2010,12,30,03,26,4.30
2010,12,30,03,27,4.00
2010,12,30,03,28,2.00
2010,12,30,03,29,2.70
2010,12,30,03,30,3.00
2010,12,30,03,31,2.10
2010,12,30,03,32,5.40
2010,12,30,03,33,1.70
2010,12,30,03,34,4.40
2010,12,30,03,35,4.00
2010,12,30,03,36,6.80
2010,12,30,03,37,4.10
2010,12,30,03,38,1.50
2010,12,30,03,39,0.50
2010,12,30,03,40,1.20
2010,12,30,03,41,4.00
2010,12,30,03,42,1.90
2010,12,30,03,43,2.20
2010,12,30,03,44,1.60
2010,12,30,03,45,0.40
2010,12,30,03,46,1.50
2010,12,30,03,47,0.20
2010,12,30,03,48,0.70
2010,12,30,03,49,1.00
2010,12,30,03,50,2.50
2010,12,30,03,51,1.40
2010,12,30,03,52,1.70
2010,12,30,03,53,0.80
2010,12,30,03,54,0.20
2010,12,30,03,55,0.90
2010,12,30,03,56,0.90
2010,12,30,03,57,2.50
2010,12,30,03,58,0.30
2010,12,30,03,59,0.10
2010,12,30,04,00,0.20
2010,12,30,04,01,1.00
2010,12,30,04,02,1.40
2010,12,30,04,03,1.90
2010,12,30,04,04,2.90
2010,12,30,04,05,2.10
2010,12,30,04,06,4.80
2010,12,30,04,07,4.70
2010,12,30,04,08,4.20
2010,12,30,04,09,6.30
2010,12,30,04,10,6.40
2010,12,30,04,11,3.70
2010,12,30,04,12,0.30
2010,12,30,04,13,4.00
2010,12,30,04,14,1.30
2010,12,30,04,15,1.30
2010,12,30,04,16,1.90
2010,12,30,04,17,2.40
2010,12,30,04,18,1.90
2010,12,30,04,19,0.90
2010,12,30,04,20,2.50
2010,12,30,04,21,0.60
2010,12,30,04,22,1.00
2010,12,30,04,23,2.50
2010,12,30,04,24,0.60
2010,12,30,04,25,2.90
2010,12,30,04,26,2.10
2010,12,30,04,27,0.30
2010,12,30,04,28,2.70
2010,12,30,04,29,3.40
2010,12,30,04,30,3.80
2010,12,30,04,31,5.30
2010,12,30,04,32,2.20
2010,12,30,04,33,1.20
2010,12,30,04,34,0.60
2010,12,30,04,35,4.40
2010,12,30,04,36,4.30
2010,12,30,04,37,1.90
2010,12,30,04,38,2.50
2010,12,30,04,39,2.50
2010,12,30,04,40,0.10
2010,12,30,04,41,0.20
2010,12,30,04,42,3.10
2010,12,30,04,43,1.30
2010,12,30,04,44,1.40
2010,12,30,04,45,0.30
2010,12,30,04,46,3.40
2010,12,30,04,47,2.00
2010,12,30,04,48,3.10
2010,12,30,04,49,3.90
2010,12,30,04,50,0.90
2010,12,30,04,51,1.40
2010,12,30,04,52,1.70
2010,12,30,04,53,0.00
2010,12,30,04,54,3.80
2010,12,30,04,55,1.80
2010,12,30,04,56,2.60
2010,12,30,04,57,0.60
2010,12,30,04,58,2.50
2010,12,30,04,59,2.80
2010,12,30,05,00,3.10
2010,12,30,05,01,0.80
2010,12,30,05,02,0.10
2010,12,30,05,03,0.10
2010,12,30,05,04,0.10
2010,12,30,05,05,0.90
2010,12,30,05,06,3.70
2010,12,30,05,07,5.50
2010,12,30,05,08,1.70
2010,12,30,05,09,6.90
2010,12,30,05,10,2.20
2010,12,30,05,11,6.40
2010,12,30,05,12,3.10
2010,12,30,05,13,4.70
2010,12,30,05,14,7.10
2010,12,30,05,15,3.00
2010,12,30,05,16,4.20
2010,12,30,05,17,2.40
2010,12,30,05,18,3.60
2010,12,30,05,19,3.90
2010,12,30,05,20,4.40
2010,12,30,05,21,2.70
2010,12,30,05,22,1.10
2010,12,30,05,23,1.30
2010,12,30,05,24,6.10
2010,12,30,05,25,5.80
2010,12,30,05,26,3.90
2010,12,30,05,27,2.50
2010,12,30,05,28,2.40
2010,12,30,05,29,2.50
2010,12,30,05,30,0.60
2010,12,30,05,31,3.50
2010,12,30,05,32,4.10
2010,12,30,05,33,7.40
2010,12,30,05,34,3.50
2010,12,30,05,35,1.90
2010,12,30,05,36,0.90
2010,12,30,05,37,2.70
2010,12,30,05,38,2.20
2010,12,30,05,39,2.80
2010,12,30,05,40,5.30
2010,12,30,05,41,3.00
2010,12,30,05,42,1.90
2010,12,30,05,43,5.20
2010,12,30,05,44,3.60
2010,12,30,05,45,1.60
2010,12,30,05,46,3.60
2010,12,30,05,47,3.00
2010,12,30,05,48,2.90
2010,12,30,05,49,2.20
2010,12,30,05,50,1.80
2010,12,30,05,51,2.60
2010,12,30,05,52,5.20
2010,12,30,05,53,4.30
2010,12,30,05,54,2.80
2010,12,30,05,55,1.90
2010,12,30,05,56,2.60
2010,12,30,05,57,2.00
2010,12,30,05,58,3.60
2010,12,30,05,59,4.70
2010,12,30,06,00,1.70
2010,12,30,06,01,1.50
2010,12,30,06,02,0.80
2010,12,30,06,03,1.00
2010,12,30,06,04,0.00
2010,12,30,06,05,0.90
2010,12,30,06,06,1.40
2010,12,30,06,07,1.30
2010,12,30,06,08,1.80
2010,12,30,06,09,1.70
2010,12,30,06,10,4.30
2010,12,30,06,11,2.30
2010,12,30,06,12,2.20
2010,12,30,06,13,0.90
2010,12,30,06,14,0.30
2010,12,30,06,15,0.00
2010,12,30,06,16,3.50
2010,12,30,06,17,2.40
2010,12,30,06,18,0.80
2010,12,30,06,19,0.30
2010,12,30,06,20,0.30
2010,12,30,06,21,2.00
2010,12,30,06,22,0.90
2010,12,30,06,23,0.10
2010,12,30,06,24,0.20
2010,12,30,06,25,0.20
2010,12,30,06,26,2.50
2010,12,30,06,27,1.20
2010,12,30,06,28,2.40
2010,12,30,06,29,2.50
2010,12,30,06,30,1.40
2010,12,30,06,31,1.30
2010,12,30,06,32,2.60
2010,12,30,06,33,5.50
2010,12,30,06,34,1.70
2010,12,30,06,35,0.10
2010,12,30,06,36,0.30
2010,12,30,06,37,0.60
2010,12,30,06,38,0.80
2010,12,30,06,39,0.00
2010,12,30,06,40,1.30
2010,12,30,06,41,4.10
2010,12,30,06,42,2.40
2010,12,30,06,43,0.30
2010,12,30,06,44,6.90
2010,12,30,06,45,4.70
2010,12,30,06,46,2.10
2010,12,30,06,47,2.80
2010,12,30,06,48,6.80
2010,12,30,06,49,3.00
2010,12,30,06,50,0.70
2010,12,30,06,51,1.40
2010,12,30,06,52,3.90
2010,12,30,06,53,2.30
2010,12,30,06,54,0.70
2010,12,30,06,55,2.20
2010,12,30,06,56,4.30
2010,12,30,06,57,1.90
2010,12,30,06,58,0.20
2010,12,30,06,59,0.50
2010,12,30,07,00,2.10
2010,12,30,07,01,4.40
2010,12,30,07,02,2.10
2010,12,30,07,03,0.10
2010,12,30,07,04,1.50
2010,12,30,07,05,0.10
2010,12,30,07,06,1.20
2010,12,30,07,07,1.70
2010,12,30,07,08,3.10
2010,12,30,07,09,1.50
2010,12,30,07,10,0.20
2010,12,30,07,11,0.60
2010,12,30,07,12,0.60
2010,12,30,07,13,1.80
2010,12,30,07,14,3.40
2010,12,30,07,15,1.00
2010,12,30,07,16,0.10
2010,12,30,07,17,0.50
2010,12,30,07,18,2.40
2010,12,30,07,19,0.60
2010,12,30,07,20,0.40
2010,12,30,07,21,2.90
2010,12,30,07,22,1.60
2010,12,30,07,23,0.40
2010,12,30,07,24,1.30
2010,12,30,07,25,1.70
2010,12,30,07,26,1.30
2010,12,30,07,27,3.10
2010,12,30,07,28,1.60
2010,12,30,07,29,3.90
2010,12,30,07,30,2.70
2010,12,30,07,31,3.00
2010,12,30,07,32,1.40
2010,12,30,07,33,0.40
2010,12,30,07,34,1.30
2010,12,30,07,35,0.10
2010,12,30,07,36,1.30
2010,12,30,07,37,0.10
2010,12,30,07,38,0.20
2010,12,30,07,39,0.80
2010,12,30,07,40,1.10
2010,12,30,07,41,1.10
2010,12,30,07,42,1.10
2010,12,30,07,43,1.20
2010,12,30,07,44,1.90
2010,12,30,07,45,0.20
2010,12,30,07,46,0.00
2010,12,30,07,47,0.40
2010,12,30,07,48,0.40
2010,12,30,07,49,2.00
2010,12,30,07,50,1.00
2010,12,30,07,51,2.30
2010,12,30,07,52,1.30
2010,12,30,07,53,1.40
2010,12,30,07,54,2.40
2010,12,30,07,55,0.00
2010,12,30,07,56,0.00
2010,12,30,07,57,0.20
2010,12,30,07,58,0.30
2010,12,30,07,59,0.40
2010,12,30,08,00,0.80
2010,12,30,08,01,0.30
2010,12,30,08,02,1.00
2010,12,30,08,03,1.10
2010,12,30,08,04,1.50
2010,12,30,08,05,0.20
2010,12,30,08,06,0.90
2010,12,30,08,07,3.00
2010,12,30,08,08,2.80
2010,12,30,08,09,0.20
2010,12,30,08,10,0.50
2010,12,30,08,11,1.60
2010,12,30,08,12,1.60
2010,12,30,08,13,1.70
2010,12,30,08,14,0.70
2010,12,30,08,15,0.40
2010,12,30,08,16,0.10
2010,12,30,08,17,0.10
2010,12,30,08,18,0.00
2010,12,30,08,19,0.50
2010,12,30,08,20,6.50
2010,12,30,08,21,6.10
2010,12,30,08,22,2.30
2010,12,30,08,23,1.70
2010,12,30,08,24,0.70
2010,12,30,08,25,0.20
2010,12,30,08,26,0.00
2010,12,30,08,27,0.60
2010,12,30,08,28,1.80
2010,12,30,08,29,3.60
2010,12,30,08,30,1.10
2010,12,30,08,31,0.10
2010,12,30,08,32,0.10
2010,12,30,08,33,0.90
2010,12,30,08,34,0.60
2010,12,30,08,35,0.70
2010,12,30,08,36,4.80
2010,12,30,08,37,1.60
2010,12,30,08,38,1.90
2010,12,30,08,39,1.70
2010,12,30,08,40,0.00
2010,12,30,08,41,0.60
2010,12,30,08,42,1.40
2010,12,30,08,43,0.00
2010,12,30,08,44,0.20
2010,12,30,08,45,3.20
2010,12,30,08,46,1.80
2010,12,30,08,47,2.50
2010,12,30,08,48,2.10
2010,12,30,08,49,3.90
2010,12,30,08,50,1.00
2010,12,30,08,51,3.40
2010,12,30,08,52,1.20
2010,12,30,08,53,1.30
2010,12,30,08,54,0.90
2010,12,30,08,55,3.10
2010,12,30,08,56,2.70
2010,12,30,08,57,0.20
2010,12,30,08,58,1.80
2010,12,30,08,59,2.10
2010,12,30,09,00,2.10
2010,12,30,09,01,0.80
2010,12,30,09,02,3.00
2010,12,30,09,03,3.90
2010,12,30,09,04,4.30
2010,12,30,09,05,2.60
2010,12,30,09,06,4.10
2010,12,30,09,07,1.80
2010,12,30,09,08,1.00
2010,12,30,09,09,1.30
2010,12,30,09,10,1.10
2010,12,30,09,11,0.10
2010,12,30,09,12,0.20
2010,12,30,09,13,0.00
2010,12,30,09,14,0.10
2010,12,30,09,15,0.00
2010,12,30,09,16,0.00
2010,12,30,09,17,0.20
2010,12,30,09,18,1.60
2010,12,30,09,19,1.10
2010,12,30,09,20,0.40
2010,12,30,09,21,0.00
2010,12,30,09,22,3.00
2010,12,30,09,23,1.20
2010,12,30,09,24,0.00
2010,12,30,09,25,0.00
2010,12,30,09,26,0.00
2010,12,30,09,27,0.20
2010,12,30,09,28,0.20
2010,12,30,09,29,0.00
2010,12,30,09,30,0.10
2010,12,30,09,31,0.20
2010,12,30,09,32,0.10
2010,12,30,09,33,0.00
2010,12,30,09,34,0.40
2010,12,30,09,35,0.30
2010,12,30,09,36,0.20
2010,12,30,09,37,0.30
2010,12,30,09,38,5.10
2010,12,30,09,39,3.20
2010,12,30,09,40,0.60
2010,12,30,09,41,0.00
2010,12,30,09,42,0.60
2010,12,30,09,43,1.00
2010,12,30,09,44,0.10
2010,12,30,09,45,0.00
2010,12,30,09,46,0.00
2010,12,30,09,47,0.00
2010,12,30,09,48,2.10
2010,12,30,09,49,4.60
2010,12,30,09,50,3.00
2010,12,30,09,51,0.80
2010,12,30,09,52,1.10
2010,12,30,09,53,2.90
2010,12,30,09,54,0.10
2010,12,30,09,55,0.00
2010,12,30,09,56,0.00
2010,12,30,09,57,0.70
2010,12,30,09,58,1.40
2010,12,30,09,59,0.00
2010,12,30,10,00,1.00
2010,12,30,10,01,0.20
2010,12,30,10,02,0.10
2010,12,30,10,03,1.60
2010,12,30,10,04,0.40
2010,12,30,10,05,0.10
2010,12,30,10,06,2.40
2010,12,30,10,07,1.40
2010,12,30,10,08,0.10
2010,12,30,10,09,1.70
2010,12,30,10,10,3.00
2010,12,30,10,11,1.40
2010,12,30,10,12,0.30
2010,12,30,10,13,2.40
2010,12,30,10,14,1.00
2010,12,30,10,15,0.00
2010,12,30,10,16,0.00
2010,12,30,10,17,0.00
2010,12,30,10,18,0.00
2010,12,30,10,19,0.00
2010,12,30,10,20,0.10
2010,12,30,10,21,0.00
2010,12,30,10,22,0.60
2010,12,30,10,23,1.90
2010,12,30,10,24,0.00
2010,12,30,10,25,0.10
2010,12,30,10,26,0.40
2010,12,30,10,27,0.00
2010,12,30,10,28,0.00
2010,12,30,10,29,0.00
2010,12,30,10,30,0.00
2010,12,30,10,31,1.50
2010,12,30,10,32,0.60
2010,12,30,10,33,2.80
2010,12,30,10,34,0.00
2010,12,30,10,35,0.00
2010,12,30,10,36,0.00
2010,12,30,10,37,0.00
2010,12,30,10,38,0.00
2010,12,30,10,39,0.00
2010,12,30,10,40,0.00
2010,12,30,10,41,0.00
2010,12,30,10,42,0.00
2010,12,30,10,43,0.00
2010,12,30,10,44,0.00
2010,12,30,10,45,0.00
2010,12,30,10,46,0.00
2010,12,30,10,47,1.50
2010,12,30,10,48,1.50
2010,12,30,10,49,2.30
2010,12,30,10,50,1.50
2010,12,30,10,51,0.90
2010,12,30,10,52,1.90
2010,12,30,10,53,2.70
2010,12,30,10,54,2.50
2010,12,30,10,55,4.00
2010,12,30,10,56,6.90
2010,12,30,10,57,6.70
2010,12,30,10,58,3.40
2010,12,30,10,59,3.20
2010,12,30,11,00,2.20
2010,12,30,11,01,2.30
2010,12,30,11,02,0.80
2010,12,30,11,03,2.70
2010,12,30,11,04,3.60
2010,12,30,11,05,3.00
2010,12,30,11,06,1.40
2010,12,30,11,07,3.40
2010,12,30,11,08,1.10
2010,12,30,11,09,0.40
2010,12,30,11,10,0.00
2010,12,30,11,11,1.80
2010,12,30,11,12,4.80
2010,12,30,11,13,5.40
2010,12,30,11,14,2.30
2010,12,30,11,15,3.60
2010,12,30,11,16,3.50
2010,12,30,11,17,1.50
2010,12,30,11,18,4.90
2010,12,30,11,19,3.10
2010,12,30,11,20,3.80
2010,12,30,11,21,1.70
2010,12,30,11,22,1.40
2010,12,30,11,23,3.60
2010,12,30,11,24,1.10
2010,12,30,11,25,0.90
2010,12,30,11,26,3.00
2010,12,30,11,27,2.50
2010,12,30,11,28,2.70
2010,12,30,11,29,3.70
2010,12,30,11,30,4.50
2010,12,30,11,31,1.10
2010,12,30,11,32,3.50
2010,12,30,11,33,3.20
2010,12,30,11,34,3.20
2010,12,30,11,35,4.10
2010,12,30,11,36,1.60
2010,12,30,11,37,1.10
2010,12,30,11,38,4.50
2010,12,30,11,39,1.70
2010,12,30,11,40,0.50
2010,12,30,11,41,2.10
2010,12,30,11,42,0.90
2010,12,30,11,43,2.20
2010,12,30,11,44,0.30
2010,12,30,11,45,1.00
2010,12,30,11,46,2.20
2010,12,30,11,47,1.70
2010,12,30,11,48,2.30
2010,12,30,11,49,0.20
2010,12,30,11,50,0.80
2010,12,30,11,51,1.70
2010,12,30,11,52,2.30
2010,12,30,11,53,2.50
2010,12,30,11,54,1.40
2010,12,30,11,55,1.40
2010,12,30,11,56,1.50
2010,12,30,11,57,3.00
2010,12,30,11,58,1.00
2010,12,30,11,59,0.10
2010,12,30,12,00,0.00
2010,12,30,12,01,1.50
2010,12,30,12,02,8.10
2010,12,30,12,03,3.30
2010,12,30,12,04,1.50
2010,12,30,12,05,1.50
2010,12,30,12,06,2.40
2010,12,30,12,07,2.70
2010,12,30,12,08,1.70
2010,12,30,12,09,1.70
2010,12,30,12,10,1.20
2010,12,30,12,11,0.90
2010,12,30,12,12,0.00
2010,12,30,12,13,2.50
2010,12,30,12,14,0.50
2010,12,30,12,15,0.20
2010,12,30,12,16,1.90
2010,12,30,12,17,1.90
2010,12,30,12,18,1.00
2010,12,30,12,19,0.00
2010,12,30,12,20,4.40
2010,12,30,12,21,1.40
2010,12,30,12,22,0.00
2010,12,30,12,23,0.00
2010,12,30,12,24,0.00
2010,12,30,12,25,0.00
2010,12,30,12,26,1.40
2010,12,30,12,27,1.20
2010,12,30,12,28,0.20
2010,12,30,12,29,0.70
2010,12,30,12,30,0.60
2010,12,30,12,31,1.40
2010,12,30,12,32,0.30
2010,12,30,12,33,0.00
2010,12,30,12,34,1.90
2010,12,30,12,35,1.60
2010,12,30,12,36,2.30
2010,12,30,12,37,0.20
2010,12,30,12,38,0.20
2010,12,30,12,39,1.00
2010,12,30,12,40,3.80
2010,12,30,12,41,3.80
2010,12,30,12,42,2.00
2010,12,30,12,43,5.30
2010,12,30,12,44,4.80
2010,12,30,12,45,5.10
2010,12,30,12,46,7.80
2010,12,30,12,47,6.90
2010,12,30,12,48,4.10
2010,12,30,12,49,2.70
2010,12,30,12,50,2.40
2010,12,30,12,51,3.00
2010,12,30,12,52,1.50
2010,12,30,12,53,3.40
2010,12,30,12,54,3.00
2010,12,30,12,55,4.70
2010,12,30,12,56,5.90
2010,12,30,12,57,3.00
2010,12,30,12,58,2.50
2010,12,30,12,59,2.40
2010,12,30,13,00,7.20
2010,12,30,13,01,7.30
2010,12,30,13,02,5.20
2010,12,30,13,03,1.40
2010,12,30,13,04,4.10
2010,12,30,13,05,6.00
2010,12,30,13,06,3.80
2010,12,30,13,07,1.90
2010,12,30,13,08,6.80
2010,12,30,13,09,3.80
2010,12,30,13,10,4.90
2010,12,30,13,11,2.20
2010,12,30,13,12,5.70
2010,12,30,13,13,3.80
2010,12,30,13,14,0.10
2010,12,30,13,15,3.00
2010,12,30,13,16,4.80
2010,12,30,13,17,5.70
2010,12,30,13,18,6.20
2010,12,30,13,19,3.80
2010,12,30,13,20,0.30
2010,12,30,13,21,1.70
2010,12,30,13,22,4.20
2010,12,30,13,23,4.20
2010,12,30,13,24,7.30
2010,12,30,13,25,4.10
2010,12,30,13,26,5.70
2010,12,30,13,27,3.40
2010,12,30,13,28,0.50
2010,12,30,13,29,4.30
2010,12,30,13,30,2.30
2010,12,30,13,31,4.70
2010,12,30,13,32,4.30
2010,12,30,13,33,1.10
2010,12,30,13,34,3.10
2010,12,30,13,35,4.30
2010,12,30,13,36,3.10
2010,12,30,13,37,4.20
2010,12,30,13,38,6.20
2010,12,30,13,39,0.90
2010,12,30,13,40,0.70
2010,12,30,13,41,0.50
2010,12,30,13,42,5.20
2010,12,30,13,43,3.10
2010,12,30,13,44,1.00
2010,12,30,13,45,4.20
2010,12,30,13,46,2.70
2010,12,30,13,47,2.80
2010,12,30,13,48,6.70
2010,12,30,13,49,9.10
2010,12,30,13,50,5.50
2010,12,30,13,51,3.10
2010,12,30,13,52,6.00
2010,12,30,13,53,3.40
2010,12,30,13,54,5.30
2010,12,30,13,55,0.60
2010,12,30,13,56,3.40
2010,12,30,13,57,0.70
2010,12,30,13,58,2.60
2010,12,30,13,59,3.50
2010,12,30,14,00,4.10
2010,12,30,14,01,5.40
2010,12,30,14,02,5.70
2010,12,30,14,03,6.00
2010,12,30,14,04,7.60
2010,12,30,14,05,8.60
2010,12,30,14,06,7.10
2010,12,30,14,07,4.00
2010,12,30,14,08,2.60
2010,12,30,14,09,3.60
2010,12,30,14,10,6.40
2010,12,30,14,11,1.90
2010,12,30,14,12,0.40
2010,12,30,14,13,1.10
2010,12,30,14,14,1.00
2010,12,30,14,15,2.10
2010,12,30,14,16,2.50
2010,12,30,14,17,0.80
2010,12,30,14,18,1.30
2010,12,30,14,19,2.90
2010,12,30,14,20,3.30
2010,12,30,14,21,3.90
2010,12,30,14,22,2.50
2010,12,30,14,23,2.20
2010,12,30,14,24,0.70
2010,12,30,14,25,1.10
2010,12,30,14,26,2.40
2010,12,30,14,27,2.10
2010,12,30,14,28,2.30
2010,12,30,14,29,3.40
2010,12,30,14,30,4.50
2010,12,30,14,31,1.70
2010,12,30,14,32,1.40
2010,12,30,14,33,1.80
2010,12,30,14,34,1.90
2010,12,30,14,35,0.90
2010,12,30,14,36,0.10
2010,12,30,14,37,0.00
2010,12,30,14,38,0.00
2010,12,30,14,39,0.30
2010,12,30,14,40,0.00
2010,12,30,14,41,0.60
2010,12,30,14,42,0.50
2010,12,30,14,43,0.50
2010,12,30,14,44,0.70
2010,12,30,14,45,0.00
2010,12,30,14,46,0.50
2010,12,30,14,47,1.20
2010,12,30,14,48,0.00
2010,12,30,14,49,0.10
2010,12,30,14,50,0.00
2010,12,30,14,51,0.00
2010,12,30,14,52,0.10
2010,12,30,14,53,0.20
2010,12,30,14,54,0.10
2010,12,30,14,55,0.20
2010,12,30,14,56,0.00
2010,12,30,14,57,0.00
2010,12,30,14,58,0.00
2010,12,30,14,59,0.00
2010,12,30,15,00,0.00
2010,12,30,15,01,0.10
2010,12,30,15,02,0.00
2010,12,30,15,03,0.20
2010,12,30,15,04,0.10
2010,12,30,15,05,1.60
2010,12,30,15,06,0.20
2010,12,30,15,07,0.00
2010,12,30,15,08,0.00
2010,12,30,15,09,0.00
2010,12,30,15,10,0.60
2010,12,30,15,11,1.90
2010,12,30,15,12,0.30
2010,12,30,15,13,0.00
2010,12,30,15,14,0.00
2010,12,30,15,15,0.00
2010,12,30,15,16,0.00
2010,12,30,15,17,0.00
2010,12,30,15,18,0.00
2010,12,30,15,19,0.20
2010,12,30,15,20,0.00
2010,12,30,15,21,0.00
2010,12,30,15,22,1.30
2010,12,30,15,23,0.40
2010,12,30,15,24,0.00
2010,12,30,15,25,0.00
2010,12,30,15,26,0.00
2010,12,30,15,27,0.00
2010,12,30,15,28,0.00
2010,12,30,15,29,0.00
2010,12,30,15,30,0.00
2010,12,30,15,31,0.00
2010,12,30,15,32,0.00
2010,12,30,15,33,0.00
2010,12,30,15,34,0.20
2010,12,30,15,35,0.90
2010,12,30,15,36,1.10
2010,12,30,15,37,0.00
2010,12,30,15,38,0.00
2010,12,30,15,39,0.00
2010,12,30,15,40,0.00
2010,12,30,15,41,0.00
2010,12,30,15,42,0.00
2010,12,30,15,43,0.00
2010,12,30,15,44,0.20
2010,12,30,15,45,0.00
2010,12,30,15,46,1.00
2010,12,30,15,47,1.00
2010,12,30,15,48,0.60
2010,12,30,15,49,1.70
2010,12,30,15,50,2.00
2010,12,30,15,51,2.60
2010,12,30,15,52,2.00
2010,12,30,15,53,2.30
2010,12,30,15,54,1.90
2010,12,30,15,55,1.40
2010,12,30,15,56,1.20
2010,12,30,15,57,1.80
2010,12,30,15,58,0.80
2010,12,30,15,59,1.00
2010,12,30,16,00,1.20
2010,12,30,16,01,1.80
2010,12,30,16,02,1.30
2010,12,30,16,03,1.20
2010,12,30,16,04,0.40
2010,12,30,16,05,1.60
2010,12,30,16,06,1.60
2010,12,30,16,07,0.60
2010,12,30,16,08,0.20
2010,12,30,16,09,1.20
2010,12,30,16,10,1.80
2010,12,30,16,11,2.60
2010,12,30,16,12,2.40
2010,12,30,16,13,2.50
2010,12,30,16,14,2.40
2010,12,30,16,15,2.70
2010,12,30,16,16,1.90
2010,12,30,16,17,1.60
2010,12,30,16,18,1.10
2010,12,30,16,19,1.60
2010,12,30,16,20,1.70
2010,12,30,16,21,1.20
2010,12,30,16,22,1.50
2010,12,30,16,23,0.90
2010,12,30,16,24,1.00
2010,12,30,16,25,1.80
2010,12,30,16,26,2.30
2010,12,30,16,27,1.90
2010,12,30,16,28,1.50
2010,12,30,16,29,0.40
2010,12,30,16,30,1.70
2010,12,30,16,31,1.80
2010,12,30,16,32,1.60
2010,12,30,16,33,1.50
2010,12,30,16,34,1.40
2010,12,30,16,35,1.60
2010,12,30,16,36,0.60
2010,12,30,16,37,1.70
2010,12,30,16,38,1.70
2010,12,30,16,39,1.90
2010,12,30,16,40,1.70
2010,12,30,16,41,2.00
2010,12,30,16,42,1.40
2010,12,30,16,43,2.50
2010,12,30,16,44,1.70
2010,12,30,16,45,2.30
2010,12,30,16,46,1.90
2010,12,30,16,47,1.90
2010,12,30,16,48,2.50
2010,12,30,16,49,2.10
2010,12,30,16,50,1.20
2010,12,30,16,51,2.20
2010,12,30,16,52,1.90
2010,12,30,16,53,0.70
2010,12,30,16,54,1.50
2010,12,30,16,55,1.60
2010,12,30,16,56,1.00
2010,12,30,16,57,2.00
2010,12,30,16,58,1.40
2010,12,30,16,59,0.10
2010,12,30,17,00,0.20
2010,12,30,17,01,0.70
2010,12,30,17,02,1.40
2010,12,30,17,03,0.30
2010,12,30,17,04,1.20
2010,12,30,17,05,1.40
2010,12,30,17,06,0.20
2010,12,30,17,07,1.30
2010,12,30,17,08,1.40
2010,12,30,17,09,0.40
2010,12,30,17,10,0.20
2010,12,30,17,11,1.60
2010,12,30,17,12,1.50
2010,12,30,17,13,1.00
2010,12,30,17,14,0.80
2010,12,30,17,15,1.00
2010,12,30,17,16,2.20
2010,12,30,17,17,2.00
2010,12,30,17,18,1.70
2010,12,30,17,19,1.80
2010,12,30,17,20,1.10
2010,12,30,17,21,0.70
2010,12,30,17,22,0.90
2010,12,30,17,23,1.20
2010,12,30,17,24,0.20
2010,12,30,17,25,0.60
2010,12,30,17,26,1.80
2010,12,30,17,27,0.20
2010,12,30,17,28,0.30
2010,12,30,17,29,0.00
2010,12,30,17,30,1.70
2010,12,30,17,31,1.40
2010,12,30,17,32,1.70
2010,12,30,17,33,1.50
2010,12,30,17,34,1.60
2010,12,30,17,35,1.40
2010,12,30,17,36,2.10
2010,12,30,17,37,0.20
2010,12,30,17,38,0.80
2010,12,30,17,39,1.40
2010,12,30,17,40,1.90
2010,12,30,17,41,1.00
2010,12,30,17,42,0.90
2010,12,30,17,43,0.20
2010,12,30,17,44,0.90
2010,12,30,17,45,0.50
2010,12,30,17,46,1.00
2010,12,30,17,47,1.60
2010,12,30,17,48,1.70
2010,12,30,17,49,0.60
2010,12,30,17,50,0.50
2010,12,30,17,51,1.70
2010,12,30,17,52,2.10
2010,12,30,17,53,1.00
2010,12,30,17,54,2.30
2010,12,30,17,55,0.20
2010,12,30,17,56,1.70
2010,12,30,17,57,1.60
2010,12,30,17,58,1.80
2010,12,30,17,59,0.80
2010,12,30,18,00,1.70
2010,12,30,18,01,0.80
2010,12,30,18,02,0.60
2010,12,30,18,03,1.40
2010,12,30,18,04,1.60
2010,12,30,18,05,2.10
2010,12,30,18,06,0.80